Temperature
12 11 11 11 11 11 11 11 11 11 11 11 11 11 11 11 11 10 10 10 11 11 11 11 11 11 10 10 10 10 11 11 11 11 11 11 11 12 12 12 12 12 12
12 11 11 10 10 10 11 11 10 10 10 10 10 10 10 10 10 10 10 10 10 10 10 10 10 10 10 10 10 10 10 10 10 10 10 10 10 11 11 11 11 11 11
12 11 10 10 10 10 10 10 10 10 10 10 10 10 10 10 10 10 10 10 10 10 10 10 10 10 10 10 10 10 10 10 10 9 9 9 9 10 10 11 11 11 11
12 11 10 10 10 10 10 10 10 10 10 10 10 10 9 9 9 9 9 9 9 9 10 9 9 9 9 9 9 9 9 9 9 9 9 9 9 9 9 10 10 10 10
12 11 10 10 10 10 10 10 10 9 9 9 9 9 9 9 9 9 9 9 9 9 9 9 9 9 9 9 9 9 9 9 9 9 8 8 8 8 8 8 9 9 9
11 11 10 10 9 9 9 9 9 9 9 9 9 9 9 8 8 8 8 8 8 8 8 8 8 8 8 8 8 8 8 8 8 8 8 8 8 8 8 8 8 8 9
11 10 10 9 9 9 9 9 9 9 9 9 8 8 8 8 8 8 8 8 8 8 8 8 8 8 8 8 8 8 8 8 8 8 8 8 7 8 7 7 7 7 8
10 10 9 9 9 9 9 9 8 8 8 8 8 8 8 7 7 7 7 7 7 7 7 7 7 7 7 7 7 7 7 7 7 7 7 7 7 7 7 7 7 7 7
10 10 9 9 9 8 8 8 8 8 8 8 8 8 7 7 7 7 7 7 7 7 7 7 7 7 7 7 7 7 7 7 6 6 6 7 7 7 7 7 6 6 6
10 10 9 9 9 8 8 8 8 8 7 7 7 7 7 7 7 6 7 7 7 7 6 6 6 6 6 6 6 6 6 6 6 6 6 6 6 6 6 6 6 6 6
10 10 9 9 9 8 8 8 8 7 7 7 7 7 7 7 6 6 6 6 6 6 6 6 6 6 6 6 6 6 6 6 6 6 5 5 6 5 5 5 5 5 5
10 10 9 9 9 8 8 7 7 7 7 7 7 7 7 6 6 6 6 6 6 6 6 6 6 6 6 6 6 5 5 5 5 5 5 5 5 5 5 5 5 5 5
10 9 9 9 8 8 8 7 7 7 7 7 7 7 6 6 6 6 6 6 6 6 5 5 5 5 5 5 5 5 5 5 5 5 5 5 4 4 4 4 4 4 4
10 9 9 8 8 8 7 7 7 7 7 7 6 6 6 6 6 6 6 6 5 5 5 5 5 5 5 5 5 5 5 5 4 4 4 4 4 4 4 4 4 4 4
9 9 8 8 8 7 7 7 7 7 6 6 6 6 6 6 6 5 5 5 5 5 5 5 5 5 5 5 5 4 4 4 4 4 4 3 3 3 3 3 3 3 3
9 8 8 8 7 7 7 7 7 6 6 6 6 6 6 6 5 5 5 5 5 5 5 5 5 4 4 4 4 4 4 3 3 3 3 3 3 3 3 3 2 2 2
8 8 8 7 7 7 7 7 7 6 6 6 6 5 5 5 5 5 5 5 5 5 5 4 4 4 4 4 4 3 3 3 3 3 3 3 2 2 2 2 2 2 2
7 7 7 7 7 7 7 7 6 6 6 6 5 5 5 5 5 5 5 5 4 4 4 4 4 4 4 4 3 3 3 3 3 2 2 2 2 2 2 2 1 1 1
7 7 7 7 7 7 6 6 6 6 6 5 5 5 5 5 4 4 4 4 4 4 4 4 4 3 3 3 3 3 3 2 2 2 2 2 2 1 1 1 1 1 1
7 6 6 6 6 6 6 6 6 6 6 5 5 5 4 4 4 4 4 4 3 4 3 3 3 3 3 3 3 2 2 2 2 2 2 1 1 1 1 1 1 0 0
6 6 6 6 6 6 5 5 5 5 5 5 5 4 4 4 4 4 4 3 3 3 3 3 3 3 3 2 2 2 2 2 2 2 1 1 1 0 0 0 -0 -0 -0
5 5 5 5 5 5 5 5 5 5 5 5 4 4 4 4 3 3 3 3 3 3 3 2 2 2 2 2 2 2 1 1 1 1 1 1 0 -0 -0 -0 -1 -1 -1
5 5 5 5 5 5 5 4 5 4 4 4 4 4 3 3 3 3 3 3 2 2 2 2 2 2 2 2 2 1 1 1 1 1 0 -0 -0 -1 -1 -1 -1 -1 -2
4 4 4 4 5 5 4 4 4 4 4 4 4 3 3 3 3 3 2 2 2 2 2 2 2 2 2 1 1 1 1 1 0 0 -0 -0 -1 -1 -1 -1 -1 -2 -2
4 4 4 4 4 4 4 4 4 4 3 3 3 3 3 2 2 2 2 2 2 2 2 2 2 1 1 1 1 0 0 0 -0 -0 -1 -1 -1 -1 -1 -2 -2 -2 -2
3 3 3 4 4 4 4 4 4 3 3 3 3 2 2 2 2 2 2 2 2 2 2 1 1 1 1 0 0 -0 -0 -1 -1 -1 -1 -1 -1 -1 -2 -2 -2 -2 -3
Wind_Speed
6 6 5 4 3 2 1 2 2 2 3 2 3 2 2 3 3 3 5 5 5 6 5 4 4 3 3 3 4 3 3 3 2 3 4 5 5 5 5 4 3 4 5
5 6 5 4 3 2 1 1 2 2 2 2 1 1 2 2 2 2 4 5 5 5 4 4 4 4 4 4 4 3 2 3 2 2 3 3 4 3 4 3 3 4 3
5 6 5 4 3 2 1 1 2 2 2 2 2 2 2 2 2 2 2 3 4 4 4 4 4 4 3 3 3 3 3 3 3 2 2 2 3 3 3 3 3 2 2
4 4 5 4 3 2 2 0 1 1 1 2 2 3 2 2 3 2 2 3 4 4 4 4 4 3 3 4 4 3 3 3 3 3 3 3 2 2 3 3 3 3 3
4 4 4 4 3 3 2 1 0 1 1 1 2 2 3 2 2 3 3 3 3 3 4 4 4 3 3 3 4 4 3 2 2 2 2 3 3 3 3 4 4 3 2
3 3 3 4 3 3 3 1 1 1 1 1 2 2 3 3 3 3 3 3 2 2 3 4 4 3 3 3 4 3 3 2 2 2 2 2 2 2 3 4 4 4 3
3 3 3 3 3 3 3 2 2 2 2 2 2 2 3 3 3 3 3 3 3 3 3 3 3 3 3 3 3 3 3 3 2 2 2 2 2 2 3 3 4 4 3
3 3 3 3 4 4 3 3 3 3 2 2 3 2 2 2 2 2 2 3 2 2 3 4 4 3 3 3 3 2 2 2 2 2 2 2 2 2 2 2 3 4 3
2 3 3 3 3 3 4 4 4 3 3 3 3 3 3 2 2 2 2 2 3 3 3 4 4 3 3 3 2 1 2 2 2 2 2 2 2 2 2 2 2 3 4
2 2 3 3 3 4 4 4 4 4 3 3 3 3 3 3 3 2 3 3 3 3 3 4 3 3 3 3 2 2 2 1 2 2 2 2 2 2 1 2 2 2 4
2 3 3 3 4 4 4 4 4 4 4 4 4 4 3 3 3 3 3 3 3 3 3 4 3 3 3 2 2 2 2 2 2 2 2 2 2 2 2 2 2 2 2
2 3 3 3 3 4 4 5 4 4 4 4 3 4 4 4 3 3 3 3 3 3 3 3 3 3 2 2 1 2 2 2 2 3 2 3 2 2 2 2 2 3 2
2 2 2 3 3 4 4 5 5 5 4 4 4 4 4 4 4 4 4 3 3 3 3 3 3 3 3 2 2 2 2 3 2 2 2 2 2 2 2 2 3 3 3
3 3 3 4 4 4 4 4 5 5 4 4 5 5 5 5 5 4 4 3 3 3 3 3 3 3 3 2 2 2 2 2 2 2 2 2 2 2 2 2 3 3 3
4 4 4 4 4 4 4 4 4 4 4 5 6 6 5 5 4 4 4 4 3 4 3 3 3 3 2 2 2 2 2 2 2 2 1 1 1 1 2 2 2 3 2
4 5 5 5 4 4 4 4 5 5 4 5 6 6 5 5 5 5 4 4 4 4 3 3 3 3 3 3 3 2 2 2 2 2 2 2 1 1 2 2 3 3 3
6 6 5 5 5 5 5 5 5 4 5 6 6 6 5 5 5 5 5 5 5 4 4 4 3 3 4 4 3 3 2 2 2 2 2 2 1 1 1 2 3 3 4
6 6 6 5 5 4 4 5 5 5 5 6 6 6 5 5 5 5 6 5 4 4 4 4 4 4 4 5 4 4 3 3 3 2 1 1 1 1 1 1 1 1 2
6 6 6 6 6 5 5 4 5 5 5 6 6 6 6 6 5 6 6 5 4 5 5 4 5 5 5 5 5 4 2 2 3 2 1 1 1 2 2 1 1 1 2
6 6 6 6 6 6 4 5 6 6 7 7 6 5 5 6 7 7 6 5 5 5 5 4 4 5 4 5 5 5 2 3 2 2 1 2 2 2 2 1 1 2 2
8 7 7 7 7 6 4 6 7 8 7 5 5 5 6 6 6 6 5 5 5 4 4 5 4 5 5 5 6 5 3 3 2 2 1 1 3 3 3 1 1 2 2
8 8 7 7 7 6 5 7 8 7 5 5 5 5 5 5 5 5 5 4 5 5 5 5 4 4 4 5 5 6 6 4 3 2 2 2 3 2 2 1 1 2 2
9 7 7 8 7 6 6 8 8 5 4 5 5 5 5 5 4 5 5 5 5 5 5 5 5 4 3 4 7 8 8 7 3 2 3 3 3 2 1 2 2 2 1
8 7 7 8 8 7 7 8 7 5 5 6 6 5 5 5 5 4 5 5 6 6 6 6 5 4 4 4 4 4 5 6 4 2 3 3 3 2 2 1 1 1 1
8 7 7 8 9 7 8 7 6 5 6 6 5 5 5 5 5 5 5 6 6 7 7 6 6 5 5 6 7 5 4 4 5 3 2 1 1 2 1 1 1 1 0
8 8 8 9 9 8 8 7 6 6 6 6 6 5 5 5 5 4 4 7 7 8 9 9 7 6 7 7 8 9 8 8 8 4 3 3 3 3 3 2 2 1 1
Wind_Direction
155 142 137 135 133 132 85 34 28 13 15 9 357 350 350 339 340 351 358 353 346 344 337 322 313 306 283 279 284 280 283 277 291 292 292 277 261 254 246 240 239 241 239
157 147 147 149 151 146 104 33 22 11 11 19 356 306 305 312 317 336 343 339 339 337 330 329 315 310 299 293 285 286 287 279 265 259 289 288 287 277 264 249 238 246 248
172 162 164 163 162 152 123 36 7 6 10 1 346 334 324 311 323 323 318 324 332 335 336 328 318 312 309 299 289 281 267 274 266 241 231 257 262 308 279 269 267 273 272
172 168 164 163 164 154 124 103 332 345 347 351 342 326 313 306 303 306 302 315 333 338 331 322 315 309 306 301 294 289 270 266 270 270 252 256 265 278 298 296 284 282 275
175 172 164 164 155 139 139 167 262 301 313 324 315 310 307 301 311 321 318 319 325 328 335 330 318 306 304 309 308 306 297 275 264 263 275 275 282 265 254 281 292 293 288
163 155 144 143 145 141 145 164 232 265 278 278 283 287 292 299 310 313 316 317 314 312 331 329 322 317 310 302 297 296 301 291 279 273 267 262 260 268 256 262 280 279 281
154 156 158 163 169 168 169 182 228 246 256 270 271 278 284 285 283 295 303 309 313 319 324 326 313 307 306 308 305 299 297 296 282 270 266 265 269 276 268 265 276 280 279
163 178 185 188 191 189 185 196 223 232 236 251 257 261 269 271 273 279 291 299 302 304 312 316 309 309 314 313 310 306 300 301 294 293 285 268 276 285 280 270 277 284 283
184 192 193 196 195 198 201 208 219 230 230 237 251 253 255 258 270 286 298 299 294 297 311 307 308 312 318 314 313 307 294 303 300 292 298 292 290 288 296 294 275 259 274
185 195 198 199 199 203 205 205 217 229 234 232 240 247 246 247 252 261 274 283 291 295 298 299 299 303 306 309 311 298 285 285 287 280 281 281 281 289 290 290 291 273 261
204 211 213 207 202 199 200 207 217 227 232 232 237 247 249 244 244 246 256 266 282 288 287 291 290 294 298 303 308 303 306 285 274 273 265 272 282 286 295 291 283 279 268
227 225 215 211 208 209 211 211 216 224 229 229 233 240 246 246 245 247 251 257 271 279 281 287 290 293 299 298 290 290 288 278 273 274 272 271 279 289 298 295 290 287 284
263 253 236 230 227 222 219 216 217 224 225 224 232 238 238 240 243 246 250 250 262 281 289 289 288 292 295 296 287 280 280 276 273 280 279 276 278 283 288 292 290 289 293
268 254 245 239 235 227 223 222 226 221 220 223 230 236 236 233 234 240 241 244 247 255 264 271 277 281 289 293 292 285 285 287 290 293 284 281 274 276 285 289 294 297 296
294 280 256 249 241 231 228 226 228 225 220 225 232 236 236 230 228 230 232 235 240 245 245 254 264 269 273 278 286 282 279 280 289 294 295 290 314 333 310 303 309 306 295
310 301 286 271 255 240 235 231 231 227 220 226 233 234 232 229 227 225 227 232 233 238 238 244 251 255 259 268 270 278 278 267 260 269 277 270 253 296 316 317 315 305 287
318 308 293 279 266 248 232 230 230 227 223 230 234 229 226 227 226 225 225 230 231 232 233 236 240 247 244 243 252 260 269 266 258 254 261 279 282 294 284 305 316 323 321
320 312 300 286 275 255 241 230 224 225 226 232 234 228 223 227 228 226 229 230 223 227 231 231 227 233 238 233 242 255 249 255 260 251 239 242 280 286 271 272 304 319 326
305 298 293 287 276 258 241 233 229 229 232 235 234 228 224 226 227 229 232 230 223 227 228 228 222 226 238 228 235 243 234 240 252 245 236 227 218 270 277 271 281 303 314
297 293 291 289 282 266 240 233 237 234 237 236 235 230 226 226 229 230 230 227 224 226 225 230 223 221 229 229 230 230 218 228 238 233 228 237 231 244 269 254 242 275 291
290 287 283 278 273 266 243 241 244 242 239 233 231 229 227 228 229 228 225 222 220 222 224 229 231 225 226 230 225 223 217 218 218 216 222 234 238 244 259 269 230 267 293
288 285 281 276 273 263 247 247 249 246 237 229 229 229 228 228 228 223 224 217 211 218 227 229 236 231 227 222 223 221 221 219 204 211 205 206 216 227 248 259 271 301 323
286 281 277 276 270 258 246 251 254 243 232 230 231 233 229 226 221 218 221 221 216 218 225 225 231 235 222 220 224 225 223 223 218 213 209 201 200 207 230 255 277 302 308
282 278 278 275 272 261 252 251 249 233 227 233 234 230 227 229 225 222 220 221 220 220 224 225 228 230 225 221 219 220 223 221 223 218 210 202 202 207 225 251 276 265 236
281 276 270 270 269 264 256 252 241 227 229 233 233 232 228 226 228 228 228 230 231 224 220 222 218 218 229 227 217 209 213 208 205 184 174 181 196 202 208 214 221 209 231
281 276 270 269 270 265 260 252 234 223 225 235 234 230 229 227 226 231 248 243 236 241 236 230 223 228 228 225 218 217 220 214 201 187 199 205 207 211 214 219 225 226 237
Height
1510 1511 1511 1512 1512 1512 1513 1513 1512 1512 1512 1512 1511 1511 1510 1510 1510 1509 1509 1508 1508 1507 1507 1506 1506 1506 1506 1506 1506 1506 1506 1505 1505 1504 1502 1502 1502 1502 1502 1502 1502 1503 1503
1508 1509 1510 1510 1511 1511 1511 1511 1511 1511 1510 1510 1509 1509 1509 1508 1508 1507 1506 1506 1505 1505 1504 1503 1503 1503 1502 1502 1502 1502 1502 1501 1502 1502 1500 1498 1497 1497 1497 1498 1497 1498 1498
1506 1507 1508 1508 1508 1509 1509 1509 1509 1509 1508 1508 1507 1507 1506 1506 1505 1504 1504 1503 1503 1502 1501 1501 1500 1499 1499 1498 1498 1498 1498 1498 1498 1498 1499 1497 1494 1493 1493 1493 1493 1493 1493
1504 1505 1505 1506 1506 1506 1507 1507 1507 1506 1506 1505 1505 1505 1504 1503 1503 1502 1501 1500 1500 1499 1498 1498 1497 1496 1495 1495 1495 1495 1494 1494 1494 1494 1494 1495 1493 1492 1489 1489 1489 1489 1488
1502 1503 1503 1504 1504 1504 1505 1505 1504 1504 1504 1503 1503 1502 1502 1501 1500 1500 1499 1498 1497 1496 1495 1494 1493 1492 1492 1491 1491 1491 1491 1490 1490 1490 1490 1490 1490 1489 1488 1486 1485 1485 1484
1500 1501 1501 1502 1502 1502 1502 1502 1502 1502 1501 1501 1500 1500 1499 1498 1498 1497 1496 1495 1494 1493 1492 1491 1490 1489 1488 1487 1487 1487 1487 1486 1486 1486 1486 1486 1486 1485 1485 1483 1481 1481 1480
1498 1499 1499 1499 1500 1500 1500 1500 1499 1499 1499 1498 1497 1497 1496 1495 1495 1494 1493 1492 1491 1490 1489 1488 1486 1485 1485 1484 1483 1483 1483 1482 1482 1482 1482 1482 1482 1482 1481 1480 1478 1477 1476
1496 1497 1497 1497 1497 1497 1497 1497 1497 1496 1496 1495 1495 1494 1493 1493 1492 1491 1490 1489 1488 1487 1486 1484 1483 1482 1481 1480 1479 1479 1479 1478 1478 1478 1478 1477 1477 1477 1477 1476 1475 1473 1472
1495 1495 1495 1495 1495 1495 1495 1494 1494 1493 1493 1493 1492 1491 1490 1490 1489 1488 1487 1486 1485 1484 1482 1481 1480 1479 1477 1476 1476 1475 1475 1474 1474 1474 1474 1473 1473 1473 1472 1472 1472 1472 1469
1493 1493 1493 1493 1493 1492 1492 1491 1491 1491 1490 1490 1489 1488 1487 1486 1486 1485 1483 1482 1481 1480 1479 1478 1477 1476 1474 1473 1472 1472 1471 1471 1470 1470 1470 1469 1469 1468 1468 1468 1467 1467 1466
1491 1491 1491 1491 1490 1489 1489 1488 1488 1487 1487 1486 1486 1485 1484 1483 1482 1481 1480 1479 1478 1477 1476 1475 1474 1473 1471 1470 1470 1469 1468 1467 1467 1466 1466 1465 1465 1465 1464 1464 1463 1463 1462
1489 1489 1488 1488 1487 1486 1486 1485 1484 1484 1483 1483 1482 1481 1480 1479 1478 1477 1477 1476 1475 1474 1472 1472 1471 1469 1468 1467 1466 1465 1464 1464 1463 1463 1462 1461 1461 1461 1460 1460 1459 1458 1457
1487 1486 1485 1484 1484 1483 1482 1481 1481 1480 1479 1479 1478 1477 1476 1475 1475 1474 1473 1472 1471 1470 1469 1468 1467 1466 1465 1464 1463 1462 1461 1460 1459 1459 1458 1457 1457 1456 1456 1455 1454 1454 1453
1484 1483 1482 1481 1480 1479 1478 1478 1477 1476 1475 1474 1473 1473 1472 1471 1471 1470 1469 1468 1467 1466 1465 1464 1463 1462 1461 1460 1459 1458 1457 1457 1456 1455 1454 1454 1453 1452 1452 1451 1450 1449 1448
1482 1481 1479 1478 1477 1476 1475 1474 1473 1472 1471 1470 1469 1468 1468 1467 1466 1466 1465 1464 1463 1462 1461 1460 1459 1458 1457 1456 1455 1455 1454 1453 1452 1451 1450 1450 1449 1449 1448 1448 1447 1445 1444
1479 1477 1476 1475 1473 1472 1471 1470 1469 1468 1467 1466 1465 1464 1463 1463 1462 1461 1461 1460 1459 1458 1457 1456 1455 1454 1453 1453 1452 1451 1450 1449 1448 1447 1446 1446 1445 1445 1444 1444 1443 1442 1441
1476 1474 1473 1471 1470 1468 1467 1466 1465 1464 1462 1461 1460 1459 1459 1458 1457 1457 1456 1455 1455 1454 1453 1452 1451 1450 1450 1449 1448 1447 1447 1446 1445 1444 1443 1442 1442 1441 1440 1440 1439 1438 1437
1473 1471 1469 1467 1466 1464 1463 1462 1460 1459 1458 1456 1455 1455 1454 1453 1453 1452 1451 1451 1450 1449 1448 1448 1447 1446 1446 1445 1445 1444 1443 1442 1441 1441 1440 1439 1438 1438 1437 1436 1435 1434 1433
1470 1468 1466 1464 1462 1460 1458 1457 1455 1454 1453 1451 1450 1450 1449 1448 1448 1447 1446 1446 1445 1444 1444 1443 1442 1442 1442 1441 1441 1440 1439 1439 1438 1437 1437 1436 1435 1435 1434 1433 1432 1431 1430
1466 1464 1461 1459 1457 1455 1454 1452 1450 1449 1447 1446 1446 1445 1444 1443 1442 1442 1441 1441 1440 1440 1439 1438 1438 1438 1437 1437 1437 1436 1435 1435 1434 1434 1433 1433 1432 1431 1430 1429 1428 1427 1426
1461 1459 1456 1454 1452 1450 1449 1447 1445 1444 1443 1442 1441 1440 1439 1438 1437 1437 1436 1436 1435 1435 1434 1434 1433 1433 1433 1433 1433 1432 1432 1431 1431 1430 1430 1429 1429 1428 1427 1426 1425 1424 1423
1456 1453 1451 1448 1447 1445 1444 1441 1440 1439 1438 1437 1436 1435 1434 1433 1432 1432 1431 1430 1430 1429 1429 1428 1428 1428 1428 1429 1428 1428 1428 1427 1427 1426 1426 1426 1425 1425 1424 1423 1422 1421 1420
1450 1448 1446 1443 1441 1440 1438 1436 1435 1434 1432 1431 1430 1429 1429 1428 1427 1426 1426 1425 1425 1424 1424 1424 1423 1423 1424 1424 1424 1424 1424 1423 1423 1423 1422 1422 1422 1421 1420 1420 1419 1418 1417
1445 1443 1440 1437 1435 1434 1433 1431 1430 1428 1427 1425 1425 1424 1423 1422 1422 1421 1421 1420 1419 1419 1419 1419 1418 1418 1419 1419 1419 1419 1419 1419 1419 1419 1419 1418 1418 1418 1417 1417 1416 1415 1414
1439 1437 1434 1432 1430 1428 1427 1425 1424 1423 1421 1420 1419 1418 1418 1417 1417 1416 1416 1415 1415 1415 1414 1414 1414 1414 1413 1414 1415 1415 1415 1415 1415 1415 1414 1414 1414 1414 1414 1413 1413 1412 1411
1433 1431 1428 1426 1424 1422 1421 1419 1418 1417 1416 1414 1413 1413 1412 1412 1411 1411 1410 1409 1410 1409 1409 1409 1409 1409 1409 1410 1410 1410 1410 1410 1411 1410 1410 1410 1410 1410 1410 1410 1409 1409 1408